This is the latest recevied weather packets stored in our database for station/object KC3SOZ. If no packets are shown the sender has not sent any weather packets the latest 10 day(s).
| Time | Temp. | Humidity | Pressure | Rain* | Wind** | Luminosity | Snow |
|---|---|---|---|---|---|---|---|
| 1777596867 | 9.44° C | 82% | 1013.2 hPa | 0 mm | - | 0 W/m² | - |
| 1777596562 | 9.44° C | 83% | 1013.2 hPa | 0 mm | - | 0 W/m² | - |
| 1777596260 | 9.44° C | 84% | 1013 hPa | 0 mm | - | 0 W/m² | - |
| 1777595957 | 9.44° C | 86% | 1012.8 hPa | 0 mm | - | 0 W/m² | - |
| 1777595657 | 9.44° C | 86% | 1013 hPa | 0 mm | - | 0 W/m² | - |
| 1777595353 | 9.44° C | 86% | 1012.5 hPa | 0 mm | - | 0 W/m² | - |
| 1777595049 | 9.44° C | 87% | 1012.6 hPa | 0 mm | - | 0 W/m² | - |
| 1777594746 | 9.44° C | 91% | 1012.7 hPa | 0 mm | - | 0 W/m² | - |
| 1777594443 | 9.44° C | 94% | 1012.6 hPa | 0 mm | - | 0 W/m² | - |
| 1777594137 | 9.44° C | 96% | 1012.5 hPa | 0 mm | - | 0 W/m² | - |
| 1777593834 | 9.44° C | 96% | 1012.5 hPa | 0 mm | - | 1 W/m² | - |
| 1777593531 | 9.44° C | 95% | 1012.4 hPa | 0 mm | - | 1 W/m² | - |
| 1777593225 | 9.44° C | 94% | 1012.2 hPa | 4.32 mm | - | 1 W/m² | - |
| 1777592925 | 9.44° C | 94% | 1012.2 hPa | 4.83 mm | - | 1 W/m² | - |
| 1777592620 | 9.44° C | 93% | 1012 hPa | 1.78 mm | - | 1 W/m² | - |
| 1777592316 | 9.44° C | 95% | 1011.9 hPa | 0 mm | - | 1 W/m² | - |
| 1777592012 | 10° C | 96% | 1011.8 hPa | 0 mm | - | 1 W/m² | - |
| 1777591709 | 10° C | 95% | 1011.8 hPa | 0 mm | - | 3 W/m² | - |
| 1777591404 | 10° C | 95% | 1011.7 hPa | 0 mm | - | 6 W/m² | - |
| 1777591101 | 10° C | 95% | 1011.5 hPa | 0 mm | - | 11 W/m² | - |
| 1777590796 | 10° C | 94% | 1011.6 hPa | 0 mm | - | 13 W/m² | - |
| 1777590492 | 10° C | 94% | 1011.7 hPa | 0 mm | - | 31 W/m² | - |
| 1777590189 | 10° C | 93% | 1011.6 hPa | 0 mm | - | 32 W/m² | - |
| 1777589886 | 10° C | 93% | 1011.5 hPa | 0 mm | - | 36 W/m² | - |
| 1777589582 | 10° C | 93% | 1011.5 hPa | 0 mm | - | 55 W/m² | - |
* Rain latest hour (hover to see other rain measurements)
** Current wind speed in m/s (hover to see current wind gust speed)